Regional Weather Roundup
Issued by NWS

Home | Current Version | Previous Version | Text Only | Print | Product List | Glossary On
Versions: 1 2 3 4 5 6 7 8 9 10 11 12 13 14 15 16 17 18 19 20 21 22 23 24 25 26 27 28 29 30 31 32 33 34 35 36 37 38 39 40 41 42 43 44 45 46 47 48 49 50
000
ASUS43 KMKX 310711
RWRWI

WISCONSIN REGIONAL WEATHER ROUNDUP
NATIONAL WEATHER SERVICE MILWAUKEE/SULLIVAN WI
200 AM CDT SAT JUL 31 2021

NOTE: "FAIR" INDICATES FEW OR NO CLOUDS BELOW 12,000 FEET WITH NO
SIGNIFICANT WEATHER AND/OR OBSTRUCTIONS TO VISIBILITY.

WIZ001-002-006>008-014>016-023>028-310800-
NORTHWEST WISCONSIN

CITY           SKY/WX    TMP DP  RH WIND       PRES   REMARKS
SUPERIOR ARPT  MOCLDY    62  59  90 SW6       29.99S FOG
ASHLAND        MOCLDY    66  58  75 SW10      29.98F HAZE
HAYWARD        MOCLDY    62  57  83 S6        30.04F
SIREN          NOT AVBL
CUMBERLAND     CLEAR     59  55  88 SW6       30.07F FOG
RICE LAKE      CLEAR     62  60  93 SW3       30.08S FOG
CHETEK         CLEAR     62  61  96 SW5       30.07S
LADYSMITH        N/A     61  61 100 CALM      30.08S FOG
EAU CLAIRE     CLEAR     64  61  90 W7        30.07S FOG
MENOMONIE        N/A     61  58  91 SW5       30.08S FOG
NEW RICHMOND   CLEAR     61  58  90 SW5       30.08F FOG
OSCEOLA        CLEAR     64  60  87 SW6       30.10F
$$

WIZ003>005-009-010-017-018-310800-
NORTH CENTRAL WISCONSIN

CITY           SKY/WX    TMP DP  RH WIND       PRES   REMARKS
MANITOWISH WTR PTCLDY    62  62 100 SW5       30.03F
ARBOR VITAE    PTCLDY    63  49  61 SW5       30.04F
WOODRUFF       PTCLDY    63  49  61 SW5       30.04F
RHINELANDER    PTCLDY    63  59  87 W8        30.06F
EAGLE RIVER    PTCLDY    61  61 100 SW6       30.03F
LAND O LAKES     N/A     61  59  94 SW3       30.03F
PHILLIPS       MOCLDY    63  63 100 SW8       30.05S
TOMAHAWK       PTCLDY    58  58  97 CALM      30.06F
MEDFORD        MOCLDY    60  60 100 SW5       30.08S
MERRILL        PTCLDY    59  59 100 CALM      30.05F
$$

WIZ029-030-035-036-043>047-310800-
CENTRAL WISCONSIN

CITY           SKY/WX    TMP DP  RH WIND       PRES   REMARKS
WAUSAU         PTCLDY    65  60  84 S3        30.05F
MOSINEE        PTCLDY    59  59 100 SW6       30.08S
MARSHFIELD     CLOUDY    63  61  93 W8        30.08S FOG
STEVENS POINT  PTCLDY    60  60 100 SW7       30.09R
WAUPACA        CLEAR     60  58  94 CALM      30.08S
WAUTOMA        CLEAR     58  57  97 CALM      30.09S
WISC RAPIDS    CLEAR     62  60  93 SW6       30.09R
CAMP DOUGLAS   CLEAR     58  56  94 W3        30.09S
$$

WIZ011>013-019>022-031-037>040-048>050-310800-
NORTHEAST WISCONSIN

CITY           SKY/WX    TMP DP  RH WIND       PRES   REMARKS
ANTIGO         CLEAR     59  58  98 W6        30.07S
SHAWANO        PTCLDY    64  60  88 SW7       30.05S
OCONTO         PTCLDY    58  57  96 W3        30.03F
STURGEON BAY   PTCLDY    58  54  86 S8        30.04
GREEN BAY      CLEAR     59  55  87 SW3       30.04F
MANITOWOC      CLEAR     58  55  90 SW6       30.06F
APPLETON       CLEAR     61  55  82 SW8       30.05F
CLINTONVILLE   CLEAR     61  58  88 SW5       30.06S
OSHKOSH        CLEAR     60  57  89 S5        30.07S
$$

WIZ032>034-041-042-053>061-310800-
SOUTHWEST WISCONSIN

CITY           SKY/WX    TMP DP  RH WIND       PRES   REMARKS
LA CROSSE      PTCLDY    66  62  87 SW9       30.09S
SPARTA           N/A     52  52  99 CALM      30.10F
VIROQUA        CLOUDY    61  61 100 W5        30.11S
BOSCOBEL       CLEAR     59  58  96 CALM      30.10F FOG
PRAIRIE DU CHI PTCLDY    60  57  90 E3        30.08F
PLATTEVILLE    CLOUDY    61  61 100 NE3       30.10F
$$

WIZ056-057-062-063-064-067-068-310800-
SOUTH CENTRAL WISCONSIN

CITY           SKY/WX    TMP DP  RH WIND       PRES   REMARKS
REEDSBURG      CLEAR     58  58 100 SW3       30.10S
BARABOO/DELLS  CLEAR     57  56  99 SW6       30.10S
LONE ROCK      FOG       57  57 100 CALM      30.10S VSB 1/4
MINERAL POINT  CLEAR     59  57  94 CALM      30.11F FOG
MADISON        CLEAR     58  57  97 CALM      30.09S
MIDDLETON      MOCLDY    55  54  96 CALM      30.11R VSB<1/4
WATERTOWN      CLEAR     56  56 100 CALM      30.09F
MONROE         CLEAR     61  58  90 NW7       30.09F
JANESVILLE     CLEAR     59  59 100 CALM      30.10F
$$

WIZ051-052-058>065-066-070>072-310800-
SOUTHEAST WISCONSIN

CITY           SKY/WX    TMP DP  RH WIND       PRES   REMARKS
MILWAUKEE      CLEAR     61  53  75 SW5       30.09F
WAUKESHA       CLEAR     55  52  88 CALM      30.11F
MILWAUKEE/TIMM CLEAR     55  50  82 CALM      30.10F
RACINE         CLEAR     57  54  89 W3        30.11F
KENOSHA        CLEAR     56  53  90 CALM      30.10F
FOND DU LAC    CLEAR     61  53  75 S6        30.08F
SHEBOYGAN      CLEAR     56  52  86 SW6       30.07F
WEST BEND      CLEAR     54  52  94 CALM      30.09F
JUNEAU         CLEAR     56  55  94 CALM      30.10F
$$

LSZ147-162-310800-
LAKE SUPERIOR

STATION/POSITION TIME  TEMP    WIND        PRES    WAVE
                       AIR SEA DIR/SP/G            HT/PER
                 (UTC) (F)     (DEG/KT/KT) (MB)    (FT/S)
W MID LAKE BUOY  0650      65  240/ 14/ 16   N/A     2/ 3
DEVILS ISLAND    0600   71                 1013.7F
PORT WING        0630   70     220/  8/ 13 1014.9S
SAXON HARBOR     0640   68     190/  6/ 10 1014.2F
$$

LMZ867-665-643>646-310800-
LAKE MICHIGAN

STATION/POSITION TIME  TEMP    WIND        PRES    WAVE
                       AIR SEA DIR/SP/G            HT/PER
                 (UTC) (F)     (DEG/KT/KT) (MB)    (FT/S)
CHAMBERS ISLAND  0640   67     170/  7/ 12   N/A
S GREEN BAY BUOY 0630   74 73  220/ 14/ 17 1016.5F   2/ 4
N MID LAKE BUOY  0650   65     210/ 17/ 21 1016.5F   2/ 3
NORTHPORT PIER   0630   62     160/  4/  9 1017.3F
KEWAUNEE LAKESHO 0624   60     250/  5/  8 1016.3
SHEBOYGAN LAKESH 0700   60     220/  8/ 10   N/A
PORT WASHINGTON  0630   60     260/  5/  6 1020.0F
ATWATER BUOY     0630   65 70  240/  6/ 10 1019.3F   2/ 5
MILWAUKEE LAKESH 0650   62     240/  4/  5   N/A
S MID LAKE BUOY  0650   68 71   30/  8/  8 1018.7F   2/ 5
KENOSHA   LAKESH 0700   63     260/  6/  7 1019.0
$$

TC  - TEMPERATURE IN CELSIUS
VSB - VISIBILITY IN STATUTE MILES
WCI - WIND CHILL INDEX
HX  - HEAT INDEX




USA.gov is the U.S. government's official web portal to all federal, state and local government web resources and services.